map of NAS home
NAS - Airport
Location
City:  Nassau, New Providence Island, New Providence, Bahamas
Name:Lynden Pindling International Airport
ICAO:MYNN
IATA:NAS

Details
Type:Airport (Aerodrome, Airfield)
Use:Public/Civil, International (customs port of entry)
Latitude:2502'20"N (25.039004)
Longitude:7727'58"W (-77.466187)
Datum:WGS 1984
Elevation:16 ft (5 m)
Variation:8.13W (WMM2015 magnetic declination)
-0.09 annual change
Runways:2
Longest:11353 × 150 ft (3460 × 45.5 m), paved

Time
Time Zone:UTC-5 (DST-4)
Local Time:

Weather
METAR:MYNN 072000Z 27004KT 9999 FEW018 BKN220 28/22 A3002
TAF:MYNN 062250Z 0700/0724 18005KT 9999 FEW020
BECMG 0706/0708 VRB02KT
BECMG 0714/0716 22006KT SCT018

Related Locations
Nearby:
Farthest:USL: 11765 mi / 18933 km
Useless Loop, WA, AU

Find:

   beyond  
but within

Other Information
Maps:
NOTAMs:
Links:
Sources:

  
flag of Bahamas   

Airport Diagram

Airport diagram for NAS

Airport diagram (OBSOLETE) from NGA

Sectional Chart

Flight Planning
at skyvector.com

Satellite Image

Google Maps Satellite view

 

Copyright © 2004-2016 Karl L. Swartz. All rights reserved.
The Great Circle Mapper name and logo are trademarks of the Great Circle Mapper.
All other trademarks mentioned herein belong to their respective owners.
Please see credits for attibutions and further copyright information.

  Follow gcmap on Facebook Follow gcmap on Twitter Follow gcmap on Google+ GCmap on LinkedIn

hCard Microformat

Geo Microformat